[[{"header":{"parameterUnit":"m.s-1","parameterCategory":1,"la1":30.2991,"la2":30.254,"lo1":-89.0895,"lo2":-89.0444,"dy":0.0017,"dx":0.0017,"nx":28,"ny":28,"refTime":"2024-08-21T09:00:00:Z","depth":0,"parameterNumber":2,"parameterNumberName":"U-component_of_WINDS"},"data":[0,0,0,0,0,0,0,0,0,0,0,0,0,0,0,0,0,0,0,0,0,0,0,0,0,0,0,0,0,0,0,0,0,0,0,0,0,0,0,0,0,0,0,0,0,0,0,0,0,0,0,0,0,0,0,0,0,0,-2.3396,-2.3396,0,-2.3378,-2.3377,-2.3377,-2.3326,-2.3324,-2.3323,-2.3322,-2.3305,-2.3306,-2.3306,0,0,0,0,0,0,0,0,0,0,0,0,0,-2.3388,-2.3389,-2.3396,-2.3396,-2.3396,-2.3378,-2.3377,-2.3377,-2.3326,-2.3324,-2.3323,-2.3322,-2.3305,-2.3306,-2.3306,0,0,0,0,0,0,0,0,0,0,0,0,0,-2.3383,-2.3389,-2.3396,-2.3368,-2.3365,-2.3378,-2.3377,-2.3377,-2.3326,-2.3324,-2.3323,-2.3321,-2.3305,-2.3306,-2.3306,-2.3346,0,0,-2.3309,-2.331,0,0,0,0,0,0,0,0,-2.3383,-2.3383,-2.3372,-2.337,-2.3367,-2.3352,-2.3368,-2.3367,-2.3327,-2.3341,-2.3322,-2.332,-2.3322,-2.3322,-2.3322,-2.3345,-2.3344,-2.3309,-2.331,-2.331,-2.331,0,0,0,0,0,0,0,-2.3384,-2.3384,-2.3389,-2.3372,-2.3369,-2.3357,-2.3354,-2.3368,-2.3341,-2.334,-2.3336,-2.3334,-2.332,-2.3321,-2.3321,-2.3344,-2.3309,-2.331,-2.3311,-2.3311,-2.3398,-2.3399,0,0,0,0,0,0,-2.3388,-2.3385,-2.3389,-2.3388,-2.3371,-2.3358,-2.3355,-2.3359,-2.3341,-2.3337,-2.3336,-2.3332,-2.332,-2.332,-2.332,-2.3364,-2.331,-2.3311,-2.3311,-2.3396,-2.3398,-2.34,0,0,0,0,0,0,-2.3388,-2.3389,-2.339,-2.3385,-2.3385,-2.336,-2.3364,-2.3359,-2.336,-2.3338,-2.3333,-2.3341,-2.3319,-2.3319,-2.3339,-2.3363,-2.3311,-2.3312,-2.3394,-2.3397,-2.3399,-2.3453,0,0,0,0,0,0,-2.3388,-2.3389,-2.3403,-2.3386,-2.3385,-2.3409,-2.3366,-2.336,-2.3361,-2.3356,-2.3342,-2.3338,-2.3318,-2.3338,-2.334,-2.3363,-2.3313,-2.3392,-2.3395,-2.3398,-2.3449,-2.3458,-2.3465,0,0,0,0,0,-2.3388,-2.342,-2.3404,-2.3405,-2.3402,-2.3411,-2.341,-2.3386,-2.3363,-2.3377,-2.3364,-2.3338,-2.3361,-2.3341,-2.3343,-2.3366,-2.339,-2.3394,-2.3398,-2.3446,-2.3456,-2.3464,0,0,0,0,0,0,-2.3441,-2.3417,-2.34,-2.3427,-2.3421,-2.3402,-2.3419,-2.3397,-2.3398,-2.3393,-2.3364,-2.3361,-2.3386,-2.3378,-2.3357,-2.3403,-2.3371,-2.3376,-2.3407,-2.3416,-2.3424,-2.3425,-2.3314,0,0,0,0,0,-2.3456,-2.3464,-2.3443,-2.3469,-2.3467,-2.3444,-2.3447,-2.3428,-2.3422,-2.3419,-2.3407,-2.3402,-2.3407,-2.3412,-2.3416,-2.3449,-2.3445,-2.3466,-2.3473,-2.348,-2.3484,-2.35,-2.3509,-2.3413,-2.3413,-2.3413,0,0,-2.3487,-2.3475,-2.3482,-2.3479,-2.3473,-2.3483,-2.3442,-2.3454,-2.3461,-2.3421,-2.3439,-2.343,-2.3423,-2.3449,-2.346,-2.3444,-2.351,-2.3485,-2.349,-2.349,-2.3505,-2.3514,-2.3522,-2.3416,-2.3415,-2.3415,0,0,-2.3547,-2.3539,-2.356,-2.3554,-2.3544,-2.3529,-2.3534,-2.3518,-2.351,-2.3528,-2.3498,-2.3507,-2.3517,-2.3513,-2.3512,-2.3572,-2.3549,-2.3574,-2.3614,-2.363,-2.3638,-2.3644,-2.3665,-2.3673,-2.3579,-2.3579,-2.3579,0,-2.3587,-2.36,-2.3573,-2.3587,-2.3587,-2.3551,-2.3571,-2.3568,-2.356,-2.3561,-2.3543,-2.3555,-2.3548,-2.3572,-2.3587,-2.3588,-2.3593,-2.3575,-2.3639,-2.3645,-2.3651,-2.367,-2.3678,-2.3582,-2.3581,-2.3581,-2.3581,0,-2.3648,-2.3658,-2.3676,-2.3669,-2.3671,-2.3688,-2.3665,-2.367,-2.3652,-2.3639,-2.3658,-2.3647,-2.3649,-2.3654,-2.3636,-2.3676,-2.3666,-2.3644,-2.3611,-2.3663,-2.3681,-2.3688,-2.3586,-2.3585,-2.3584,-2.3583,0,0,-2.3741,-2.3719,-2.3726,-2.3722,-2.371,-2.3717,-2.3733,-2.3734,-2.3739,-2.3736,-2.3748,-2.3758,-2.3737,-2.3736,-2.3719,-2.3733,-2.3781,-2.3709,-2.3708,-2.3722,-2.3824,-2.384,-2.3849,-2.3766,-2.3767,-2.3768,-2.3824,0,-2.3797,-2.3822,-2.3799,-2.3829,-2.3838,-2.3804,-2.3818,-2.3812,-2.38,-2.3806,-2.3794,-2.3801,-2.3773,-2.3772,-2.3785,-2.3772,-2.3801,-2.3768,-2.3777,-2.3778,-2.3779,-2.3858,-2.3875,-2.3928,-2.3831,-2.3832,-2.3833,0,-2.3866,-2.3865,-2.3896,-2.3881,-2.3884,-2.3897,-2.3895,-2.3902,-2.3894,-2.3885,-2.3884,-2.3862,-2.3878,-2.3846,-2.3867,-2.3845,-2.3848,-2.3842,-2.3844,-2.3843,-2.3808,-2.3858,-2.3944,-2.3952,-2.3844,-2.3843,-2.3842,0,-2.393,-2.3936,-2.3955,-2.3953,-2.3937,-2.3947,-2.394,-2.3931,-2.3933,-2.3933,-2.3934,-2.3935,-2.3936,-2.3938,-2.3918,-2.3897,-2.3941,-2.3908,-2.3933,-2.3934,-2.3943,-2.3942,-2.403,-2.3947,-2.3946,-2.3946,-2.3946,0,-2.3995,-2.4015,-2.3983,-2.3995,-2.4016,-2.399,-2.4012,-2.4003,-2.3995,-2.4005,-2.3977,-2.3986,-2.3959,-2.3966,-2.395,-2.3969,-2.397,-2.3963,-2.3958,-2.3965,-2.3966,-2.3965,-2.3961,-2.3948,-2.3948,-2.3947,-2.3947,0,-2.4069,-2.4049,-2.4067,-2.405,-2.4046,-2.4062,-2.4048,-2.4058,-2.4045,-2.4057,-2.4059,-2.4038,-2.4045,-2.4025,-2.4029,-2.4018,-2.4045,-2.4035,-2.4048,-2.4044,-2.407,-2.4068,-2.416,-2.417,-2.4081,-2.4082,-2.4083,0,-2.4111,-2.4125,-2.4109,-2.4113,-2.4108,-2.4115,-2.4117,-2.4092,-2.4096,-2.4089,-2.41,-2.4104,-2.4106,-2.4119,-2.4104,-2.4107,-2.4096,-2.4128,-2.4096,-2.4102,-2.4096,-2.4095,-2.4096,-2.4135,-2.4136,-2.4137,-2.4137,0,-2.4188,-2.4177,-2.418,-2.418,-2.4183,-2.4182,-2.4179,-2.4184,-2.4157,-2.4163,-2.4169,-2.417,-2.4174,-2.4179,-2.4178,-2.4172,-2.4151,-2.4148,-2.4153,-2.416,-2.4166,-2.4162,-2.4064,-2.4145,-2.4144,-2.4144,-2.4143,-2.4143,-2.4246,-2.4257,-2.4248,-2.4252,-2.4247,-2.4245,-2.4254,-2.4242,-2.4246,-2.4247,-2.4232,-2.4242,-2.4234,-2.4232,-2.4228,-2.4235,-2.422,-2.4229,-2.4231,-2.4233,-2.4237,-2.4166,-2.4235,-2.4235,-2.4235,-2.4235,-2.4234,0,-2.4321,-2.4313,-2.4318,-2.4314,-2.4318,-2.4297,-2.4292,-2.4297,-2.4305,-2.43,-2.4303,-2.431,-2.4314,-2.4301,-2.4303,-2.4311,-2.4302,-2.4313,-2.4311,-2.431,-2.4251,-2.4245,-2.4321,-2.4321,-2.4321,-2.4321,-2.4321,-2.4321,-2.436,-2.4377,-2.4366,-2.4381,-2.4373,-2.4381,-2.438,-2.4378,-2.4374,-2.4383,-2.4387,-2.4377,-2.4369,-2.4371,-2.4374,-2.437,-2.4372,-2.4386,-2.4379,-2.4323,-2.4315,-2.4307,-2.4301,-2.4387,-2.4387,-2.4437,-2.4438,-2.4438]},{"header":{"parameterUnit":"m.s-1","parameterCategory":1,"la1":30.2991,"la2":30.254,"lo1":-89.0895,"lo2":-89.0444,"dy":0.0017,"dx":0.0017,"nx":28,"ny":28,"refTime":"2024-08-21T09:00:00:Z","depth":0,"parameterNumber":3,"parameterNumberName":"V-component_of_WINDS"},"data":[0,0,0,0,0,0,0,0,0,0,0,0,0,0,0,0,0,0,0,0,0,0,0,0,0,0,0,0,0,0,0,0,0,0,0,0,0,0,0,0,0,0,0,0,0,0,0,0,0,0,0,0,0,0,0,0,0,0,0.5265,0.5261,0,0.4855,0.4851,0.4846,0.466,0.4661,0.4661,0.4662,0.4233,0.4222,0.421,0,0,0,0,0,0,0,0,0,0,0,0,0,0.5882,0.5872,0.5266,0.5261,0.5256,0.4856,0.485,0.4845,0.466,0.4661,0.4662,0.4662,0.4237,0.4223,0.4209,0,0,0,0,0,0,0,0,0,0,0,0,0,0.5558,0.5869,0.5267,0.5116,0.5098,0.4857,0.485,0.4843,0.466,0.4661,0.4662,0.4662,0.4242,0.4225,0.4207,0.4083,0,0,0.4153,0.4145,0,0,0,0,0,0,0,0,0.5576,0.5535,0.5143,0.5126,0.5105,0.481,0.491,0.4588,0.466,0.4826,0.4662,0.4663,0.4424,0.4392,0.4313,0.4063,0.4045,0.4151,0.4141,0.4133,0.4128,0,0,0,0,0,0,0,0.5599,0.5552,0.5103,0.5138,0.5115,0.5066,0.5021,0.4849,0.4626,0.4812,0.4797,0.4752,0.4414,0.433,0.4301,0.4039,0.4152,0.4136,0.4125,0.4118,0.3667,0.3666,0,0,0,0,0,0,0.5647,0.5572,0.5116,0.5091,0.5348,0.5054,0.5004,0.4904,0.4627,0.4586,0.4752,0.4745,0.436,0.4322,0.4286,0.4122,0.4133,0.4116,0.4106,0.3668,0.3667,0.3665,0,0,0,0,0,0,0.5661,0.5608,0.5133,0.5327,0.5263,0.5043,0.4933,0.4896,0.4812,0.4582,0.4541,0.4708,0.4359,0.431,0.4136,0.4104,0.4108,0.4092,0.367,0.3668,0.3666,0.3795,0,0,0,0,0,0,0.568,0.5615,0.5567,0.5328,0.5253,0.4992,0.4931,0.4887,0.4782,0.477,0.453,0.449,0.4356,0.4163,0.4118,0.408,0.4078,0.3671,0.3669,0.3667,0.3792,0.3797,0.3802,0,0,0,0,0,0.5702,0.5617,0.5565,0.5511,0.519,0.4991,0.4948,0.4797,0.4781,0.473,0.4583,0.4498,0.4116,0.4147,0.4094,0.4051,0.3673,0.367,0.3667,0.379,0.3796,0.3802,0,0,0,0,0,0,0.5855,0.5583,0.5522,0.5358,0.52,0.496,0.4891,0.4809,0.4649,0.4643,0.4461,0.4408,0.4249,0.4132,0.4172,0.3916,0.3887,0.3873,0.3998,0.4002,0.4007,0.4038,0.4064,0,0,0,0,0,0.5871,0.5734,0.5503,0.538,0.5304,0.5112,0.502,0.4918,0.4745,0.4676,0.4515,0.4349,0.4191,0.409,0.3932,0.3775,0.3719,0.3719,0.3724,0.3729,0.3719,0.3626,0.3623,0.3655,0.3655,0.3655,0,0,0.5899,0.5734,0.5658,0.5407,0.5272,0.5133,0.5056,0.4912,0.4806,0.4653,0.4478,0.4356,0.4157,0.3991,0.391,0.3888,0.3698,0.3725,0.3731,0.3717,0.3623,0.362,0.3618,0.3653,0.3654,0.3654,0,0,0.5879,0.5742,0.5624,0.5492,0.529,0.5163,0.5136,0.4908,0.4822,0.4645,0.4527,0.4398,0.413,0.3993,0.3889,0.3822,0.3738,0.3775,0.3799,0.3712,0.3709,0.3706,0.3681,0.3674,0.3766,0.3767,0.3767,0,0.5939,0.5728,0.5574,0.5436,0.5329,0.5188,0.5066,0.4944,0.47,0.4628,0.4609,0.4271,0.4127,0.3927,0.3911,0.3832,0.3793,0.3801,0.3723,0.3718,0.3712,0.3686,0.3677,0.3772,0.3772,0.3771,0.3771,0,0.5811,0.5666,0.5595,0.5367,0.5251,0.5123,0.4948,0.4849,0.4758,0.4633,0.4455,0.4278,0.4082,0.4028,0.3936,0.3814,0.3807,0.3758,0.3724,0.3718,0.369,0.3679,0.3781,0.3779,0.3777,0.3776,0,0,0.5873,0.5564,0.554,0.5435,0.5203,0.5087,0.4952,0.4764,0.4682,0.4519,0.44,0.4178,0.4132,0.4013,0.3906,0.3829,0.3786,0.3788,0.378,0.3793,0.364,0.3678,0.3669,0.3731,0.3728,0.3726,0.3656,0,0.5821,0.5575,0.5434,0.5246,0.5109,0.4975,0.4857,0.4701,0.4581,0.4446,0.4312,0.4158,0.4109,0.4037,0.3955,0.3809,0.3753,0.3812,0.3615,0.361,0.3668,0.3654,0.3692,0.3635,0.3644,0.3642,0.3641,0,0.5726,0.557,0.5369,0.5154,0.5091,0.4989,0.4805,0.4679,0.4499,0.4417,0.4287,0.418,0.4031,0.4012,0.3802,0.3846,0.3757,0.3674,0.3668,0.3641,0.3624,0.3626,0.3613,0.3604,0.3623,0.3624,0.3625,0,0.579,0.5529,0.5375,0.529,0.5035,0.4966,0.4856,0.4678,0.4574,0.4413,0.4343,0.4167,0.4069,0.3934,0.3781,0.3782,0.3587,0.3555,0.3512,0.3516,0.3475,0.3479,0.3446,0.3422,0.3422,0.3422,0.3423,0,0.5745,0.5628,0.5401,0.5307,0.517,0.5009,0.4878,0.4757,0.46,0.4477,0.435,0.4237,0.4044,0.3907,0.3787,0.3631,0.3588,0.3516,0.3485,0.3526,0.3536,0.3464,0.3463,0.342,0.342,0.3421,0.3421,0,0.5793,0.5637,0.546,0.5236,0.5176,0.5086,0.4892,0.4794,0.4669,0.4516,0.4471,0.4273,0.4106,0.3942,0.3716,0.3635,0.348,0.344,0.3542,0.3525,0.3491,0.3496,0.3409,0.3389,0.3382,0.3382,0.3382,0,0.5773,0.568,0.5447,0.5358,0.5252,0.5109,0.5004,0.4841,0.4736,0.4526,0.4453,0.4277,0.4127,0.3866,0.3701,0.3528,0.3481,0.3463,0.3453,0.3498,0.3478,0.3485,0.3475,0.3467,0.3467,0.3468,0.3469,0,0.5755,0.5684,0.5538,0.5366,0.5245,0.51,0.4951,0.4885,0.4693,0.4582,0.4411,0.4295,0.4067,0.3893,0.3701,0.3585,0.3494,0.3474,0.3454,0.3494,0.3557,0.3521,0.3553,0.3475,0.3475,0.3474,0.3474,0.3474,0.5766,0.5678,0.5501,0.5343,0.5215,0.5079,0.4977,0.4841,0.4696,0.45,0.4412,0.424,0.4062,0.3796,0.3682,0.3543,0.352,0.3492,0.3485,0.348,0.3489,0.3582,0.3508,0.3507,0.3507,0.3506,0.3506,0,0.5741,0.5621,0.5478,0.5276,0.5152,0.5082,0.4914,0.4813,0.4665,0.4508,0.4365,0.4169,0.4,0.3824,0.3645,0.3568,0.3522,0.3526,0.3529,0.3503,0.352,0.3554,0.3566,0.3566,0.3566,0.3566,0.3566,0.3566,0.5713,0.5559,0.5467,0.5248,0.5127,0.496,0.487,0.4744,0.4619,0.4407,0.4267,0.4155,0.3989,0.3798,0.364,0.3592,0.3531,0.3547,0.3487,0.3506,0.3502,0.3498,0.3529,0.3536,0.3536,0.3481,0.3481,0.348]}]]